GOES 3 [-]

Last updated on Aug. 14, 2020, 5:30 a.m. UTC

1 10953U 78062A   20226.11453208 -.00000254  00000-0  00000-0 0  9999
2 10953  11.5578 318.5190 0001713  66.9755 310.0212  0.99364596107338
UTC
Height (km)
Latitude
Longitude
Inclination
Orbital Period
UTC large
Height (km)
Speed (km/s)
/
Latitude / Longitude
Inclination (degrees)
Orbital Period (minutes)
Azimuth
Elevation
Range (km)
Doppler Factor
iOS Compass Heading
iOS Angle

Next 30 passes for location: Hong Kong

Rise time Rise Azimuth (degrees) Set time Set Azimuth (degrees) Duration Max altitude (degrees)

No matching passes for this satellites